HYS481 LUKK-LROP

Flight info

Callsign HYS481
Flight time 0h 41m
Altitude 30000
Route LIPTA T34 KODRU DCT DENAK
Aircraft A21N/M-SDE2E3FGHIRWXY/LB1

Departure

Time 2026-05-09 11:53
Airport Chişinău International Airport (LUKK)

Arrival

Time 2026-05-09 12:34
Airport Bucharest Henri Coandă International Airport (LROP)
Time Latitude Longitude Altitude Speed Heading
2026-05-09 11:27 46.93359 28.93666 333 ft 0 kts
2026-05-09 11:40 46.93376 28.93670 330 ft 7 kts
2026-05-09 11:40 46.93409 28.93644 330 ft 6 kts 295°
2026-05-09 11:41 46.93417 28.93525 334 ft 14 kts 272°
2026-05-09 11:41 46.93368 28.93477 336 ft 10 kts 189°
2026-05-09 11:41 46.93265 28.93460 336 ft 18 kts 186°
2026-05-09 11:41 46.93161 28.93420 338 ft 13 kts 229°
2026-05-09 11:42 46.93165 28.93288 349 ft 14 kts 277°
2026-05-09 11:42 46.93177 28.93137 346 ft 18 kts 277°
2026-05-09 11:42 46.93194 28.92916 351 ft 25 kts 276°
2026-05-09 11:42 46.93216 28.92656 358 ft 26 kts 277°
2026-05-09 11:43 46.93237 28.92397 366 ft 25 kts 276°
2026-05-09 11:43 46.93258 28.92141 370 ft 24 kts 276°
2026-05-09 11:43 46.93243 28.92036 373 ft 7 kts 209°
2026-05-09 11:43 46.93183 28.92011 374 ft 11 kts 195°
2026-05-09 11:44 46.93084 28.91984 375 ft 18 kts 184°
2026-05-09 11:44 46.92982 28.91990 375 ft 0 kts 178°
2026-05-09 11:45 46.92960 28.91991 375 ft 2 kts 179°
2026-05-09 11:45 46.92918 28.91992 374 ft 2 kts 179°
2026-05-09 11:45 46.92892 28.91993 375 ft 0 kts 179°
2026-05-09 11:49 46.92889 28.91993 375 ft 2 kts 179°
2026-05-09 11:49 46.92838 28.91996 375 ft 12 kts 178°
2026-05-09 11:50 46.92754 28.91961 377 ft 11 kts 237°
2026-05-09 11:50 46.92755 28.91880 378 ft 11 kts 270°
2026-05-09 11:50 46.92752 28.91709 382 ft 22 kts 268°
2026-05-09 11:50 46.92747 28.91473 389 ft 24 kts 268°
2026-05-09 11:51 46.92741 28.91219 391 ft 25 kts 268°
2026-05-09 11:51 46.92736 28.90966 399 ft 25 kts 268°
2026-05-09 11:51 46.92771 28.90801 405 ft 14 kts 286°
2026-05-09 11:51 46.92752 28.90770 404 ft 2 kts 179°
2026-05-09 11:52 46.92735 28.90806 405 ft 8 kts 108°
2026-05-09 11:52 46.92734 28.90840 405 ft 0 kts 89°
2026-05-09 11:52 46.92734 28.90857 404 ft 7 kts 89°
2026-05-09 11:52 46.92742 28.91252 393 ft 81 kts 88°
2026-05-09 11:53 46.92768 28.92455 365 ft 152 kts 88°
2026-05-09 11:53 46.92803 28.94149 846 ft 167 kts 89°
2026-05-09 11:53 46.92838 28.95855 1621 ft 171 kts 89°
2026-05-09 11:53 46.92878 28.97621 2438 ft 179 kts 90°
2026-05-09 11:54 46.92918 28.99547 2988 ft 201 kts 90°
2026-05-09 11:54 46.92960 29.01701 3546 ft 224 kts 90°
2026-05-09 11:54 46.93005 29.04104 4194 ft 248 kts 90°
2026-05-09 11:54 46.92776 29.06645 5006 ft 258 kts 116°
2026-05-09 11:55 46.91593 29.08565 6072 ft 258 kts 152°
2026-05-09 11:56 46.83161 29.04420 10783 ft 303 kts 224°
2026-05-09 11:56 46.81648 29.02106 11178 ft 327 kts 225°
2026-05-09 11:56 46.80071 28.99678 11787 ft 339 kts 225°
2026-05-09 11:57 46.78435 28.97187 12690 ft 342 kts 224°
2026-05-09 11:57 46.76763 28.94670 13558 ft 348 kts 224°
2026-05-09 11:57 46.75062 28.92129 14374 ft 352 kts 224°
2026-05-09 11:57 46.73338 28.89564 15196 ft 355 kts 224°
2026-05-09 11:58 46.71596 28.86978 16004 ft 359 kts 224°
2026-05-09 11:58 46.69836 28.84367 16782 ft 363 kts 224°
2026-05-09 11:58 46.68057 28.81729 17558 ft 367 kts 224°
2026-05-09 11:58 46.66262 28.79070 18316 ft 371 kts 224°
2026-05-09 11:59 46.64442 28.76375 18978 ft 374 kts 224°
2026-05-09 11:59 46.62611 28.73666 19642 ft 377 kts 224°
2026-05-09 11:59 46.60762 28.70933 20296 ft 381 kts 224°
2026-05-09 11:59 46.58894 28.68175 20934 ft 384 kts 224°
2026-05-09 12:00 46.57012 28.65398 21594 ft 388 kts 224°
2026-05-09 12:00 46.55111 28.62595 22227 ft 391 kts 224°
2026-05-09 12:00 46.53196 28.59775 22856 ft 395 kts 225°
2026-05-09 12:00 46.51250 28.56912 23473 ft 399 kts 225°
2026-05-09 12:01 46.49293 28.54035 24032 ft 402 kts 225°
2026-05-09 12:01 46.47326 28.51145 24565 ft 404 kts 225°
2026-05-09 12:01 46.45339 28.48231 25081 ft 407 kts 225°
2026-05-09 12:01 46.43341 28.45302 25578 ft 410 kts 225°
2026-05-09 12:02 46.41328 28.42356 26062 ft 413 kts 225°
2026-05-09 12:02 46.39302 28.39394 26539 ft 415 kts 225°
2026-05-09 12:02 46.37262 28.36414 26979 ft 418 kts 225°
2026-05-09 12:02 46.35209 28.33419 27435 ft 421 kts 225°
2026-05-09 12:03 46.33137 28.30401 27857 ft 423 kts 225°
2026-05-09 12:03 46.31055 28.27370 28299 ft 426 kts 225°
2026-05-09 12:03 46.28962 28.24326 28706 ft 428 kts 225°
2026-05-09 12:03 46.26853 28.21265 29086 ft 431 kts 225°
2026-05-09 12:04 46.24733 28.18188 29459 ft 433 kts 225°
2026-05-09 12:04 46.22600 28.15097 29845 ft 435 kts 224°
2026-05-09 12:04 46.20456 28.11993 30057 ft 438 kts 224°
2026-05-09 12:05 46.16157 28.05782 30045 ft 438 kts 224°
2026-05-09 12:05 46.11849 27.99571 30041 ft 438 kts 224°
2026-05-09 12:06 46.07535 27.93368 30039 ft 438 kts 224°
2026-05-09 12:06 46.03213 27.87167 30041 ft 438 kts 224°
2026-05-09 12:07 45.98888 27.80977 30049 ft 439 kts 224°
2026-05-09 12:07 45.94588 27.74837 30046 ft 439 kts 224°
2026-05-09 12:08 45.90251 27.68659 30041 ft 439 kts 224°
2026-05-09 12:08 45.85912 27.62493 30036 ft 439 kts 224°
2026-05-09 12:09 45.83123 27.58538 30043 ft 439 kts 224°
2026-05-09 12:09 45.78781 27.52391 30046 ft 439 kts 224°
2026-05-09 12:10 45.70077 27.40112 30035 ft 439 kts 224°
2026-05-09 12:11 45.65724 27.33992 30042 ft 439 kts 224°
2026-05-09 12:11 45.61364 27.27875 30043 ft 439 kts 224°
2026-05-09 12:12 45.57001 27.21770 30044 ft 439 kts 224°
2026-05-09 12:12 45.52632 27.15670 29987 ft 438 kts 224°
2026-05-09 12:12 45.50458 27.12639 29548 ft 436 kts 224°
2026-05-09 12:13 45.48278 27.09605 28619 ft 439 kts 224°
2026-05-09 12:13 45.46107 27.06585 27978 ft 432 kts 223°
2026-05-09 12:13 45.43983 27.03634 27637 ft 420 kts 223°
2026-05-09 12:13 45.41908 27.00754 27244 ft 416 kts 223°
2026-05-09 12:14 45.39849 26.97901 26727 ft 411 kts 223°
2026-05-09 12:14 45.37809 26.95076 26206 ft 405 kts 223°
2026-05-09 12:14 45.35839 26.92350 25706 ft 399 kts 223°
2026-05-09 12:14 45.33857 26.89613 25202 ft 393 kts 223°
2026-05-09 12:15 45.31882 26.86886 24703 ft 387 kts 223°
2026-05-09 12:15 45.29964 26.84241 24220 ft 382 kts 223°
2026-05-09 12:15 45.28094 26.81664 23735 ft 378 kts 223°
2026-05-09 12:15 45.26219 26.79084 23202 ft 373 kts 223°
2026-05-09 12:16 45.24368 26.76538 22730 ft 369 kts 223°
2026-05-09 12:16 45.22522 26.74003 22229 ft 370 kts 223°
2026-05-09 12:16 45.20678 26.71472 21756 ft 368 kts 223°
2026-05-09 12:16 45.18850 26.68965 21283 ft 363 kts 223°
2026-05-09 12:17 45.17039 26.66484 20802 ft 362 kts 223°
2026-05-09 12:17 45.15230 26.64009 20324 ft 361 kts 222°
2026-05-09 12:17 45.13429 26.61548 19846 ft 358 kts 222°
2026-05-09 12:17 45.11649 26.59117 19376 ft 356 kts 222°
2026-05-09 12:18 45.09941 26.56786 18922 ft 355 kts 222°
2026-05-09 12:18 45.08169 26.54370 18451 ft 353 kts 222°
2026-05-09 12:18 45.06406 26.51969 17942 ft 351 kts 222°
2026-05-09 12:18 45.04652 26.49580 17472 ft 349 kts 222°
2026-05-09 12:19 45.02908 26.47208 16997 ft 346 kts 221°
2026-05-09 12:19 45.00988 26.45199 16305 ft 346 kts 205°
2026-05-09 12:19 44.98688 26.44138 15716 ft 355 kts 186°
2026-05-09 12:19 44.96212 26.44143 15409 ft 357 kts 172°
2026-05-09 12:20 44.93746 26.44514 15105 ft 356 kts 173°
2026-05-09 12:20 44.91294 26.44870 14650 ft 353 kts 173°
2026-05-09 12:20 44.89682 26.45099 14338 ft 349 kts 173°
2026-05-09 12:20 44.87282 26.45438 13872 ft 344 kts 173°
2026-05-09 12:21 44.85008 26.45757 13406 ft 338 kts 173°
2026-05-09 12:21 44.82692 26.46084 12961 ft 332 kts 173°
2026-05-09 12:21 44.80416 26.46407 12532 ft 326 kts 173°
2026-05-09 12:21 44.78174 26.46726 12084 ft 322 kts 173°
2026-05-09 12:22 44.75967 26.47038 11658 ft 315 kts 173°
2026-05-09 12:22 44.73796 26.47221 11186 ft 313 kts 182°
2026-05-09 12:22 44.71674 26.46435 10519 ft 322 kts 205°
2026-05-09 12:22 44.69857 26.44459 10332 ft 339 kts 228°
2026-05-09 12:23 44.68676 26.41616 10286 ft 337 kts 251°
2026-05-09 12:23 44.68277 26.38444 10158 ft 323 kts 264°
2026-05-09 12:23 44.68060 26.35370 10034 ft 309 kts 264°
2026-05-09 12:23 44.67853 26.32419 9750 ft 301 kts 264°
2026-05-09 12:24 44.67641 26.29477 9234 ft 303 kts 263°
2026-05-09 12:24 44.67426 26.26568 8946 ft 297 kts 263°
2026-05-09 12:24 44.67209 26.23698 8572 ft 293 kts 263°
2026-05-09 12:24 44.66996 26.20873 8207 ft 289 kts 263°
2026-05-09 12:25 44.66783 26.18082 7840 ft 286 kts 263°
2026-05-09 12:25 44.66573 26.15319 7473 ft 283 kts 263°
2026-05-09 12:25 44.66367 26.12594 7148 ft 278 kts 263°
2026-05-09 12:25 44.66167 26.09943 6958 ft 269 kts 263°
2026-05-09 12:26 44.65967 26.07310 6451 ft 273 kts 263°
2026-05-09 12:26 44.65765 26.04670 6177 ft 269 kts 263°
2026-05-09 12:26 44.65566 26.02078 5971 ft 269 kts 263°
2026-05-09 12:26 44.65365 25.99460 5639 ft 270 kts 263°
2026-05-09 12:27 44.65163 25.96849 5302 ft 267 kts 263°
2026-05-09 12:27 44.64964 25.94272 4963 ft 264 kts 263°
2026-05-09 12:27 44.64768 25.91728 4618 ft 261 kts 263°
2026-05-09 12:27 44.64573 25.89212 4283 ft 258 kts 263°
2026-05-09 12:28 44.64379 25.86722 3970 ft 257 kts 263°
2026-05-09 12:28 44.64095 25.84242 3615 ft 258 kts 249°
2026-05-09 12:28 44.63116 25.82200 3457 ft 251 kts 217°
2026-05-09 12:28 44.61590 25.81151 3229 ft 244 kts 186°
2026-05-09 12:29 44.59933 25.81233 2950 ft 236 kts 167°
2026-05-09 12:29 44.58351 25.81683 2672 ft 228 kts 165°
2026-05-09 12:29 44.56808 25.82154 2508 ft 233 kts 162°
2026-05-09 12:29 44.55430 25.83218 2488 ft 218 kts 130°
2026-05-09 12:30 44.54848 25.85014 2517 ft 195 kts 95°
2026-05-09 12:30 44.54866 25.86842 2486 ft 187 kts 84°
2026-05-09 12:30 44.55152 25.90317 2486 ft 169 kts 84°
2026-05-09 12:31 44.55274 25.91923 2483 ft 164 kts 84°
2026-05-09 12:31 44.55508 25.95074 2125 ft 156 kts 83°
2026-05-09 12:31 44.55619 25.96503 1926 ft 143 kts 82°
2026-05-09 12:32 44.55725 25.97908 1757 ft 147 kts 82°
2026-05-09 12:32 44.55827 25.99264 1550 ft 133 kts 82°
2026-05-09 12:32 44.55919 26.00490 1382 ft 123 kts 82°
2026-05-09 12:32 44.56015 26.01732 1209 ft 128 kts 81°
2026-05-09 12:33 44.56110 26.02967 1034 ft 127 kts 82°
2026-05-09 12:33 44.56203 26.04206 859 ft 128 kts 82°
2026-05-09 12:33 44.56296 26.05448 686 ft 126 kts 81°
2026-05-09 12:33 44.56387 26.06673 502 ft 127 kts 82°
2026-05-09 12:34 44.56482 26.07900 343 ft 125 kts 81°
2026-05-09 12:34 44.56567 26.08998 318 ft 92 kts 83°
2026-05-09 12:34 44.56619 26.09692 318 ft 59 kts 84°
2026-05-09 12:34 44.56652 26.10127 320 ft 28 kts 84°
2026-05-09 12:35 44.56673 26.10407 320 ft 30 kts 84°
2026-05-09 12:35 44.56693 26.10675 319 ft 22 kts 84°
2026-05-09 12:35 44.56777 26.10767 320 ft 16 kts 355°
2026-05-09 12:35 44.56859 26.10756 325 ft 11 kts 355°
2026-05-09 12:36 44.56901 26.10750 325 ft 0 kts 354°
2026-05-09 12:36 44.56910 26.10749 327 ft 5 kts 354°
2026-05-09 12:37 44.56978 26.10727 324 ft 13 kts 328°
2026-05-09 12:37 44.57053 26.10596 325 ft 22 kts 299°
2026-05-09 12:37 44.57054 26.10355 326 ft 28 kts 264°
2026-05-09 12:37 44.57039 26.10138 327 ft 24 kts 264°
2026-05-09 12:38 44.57025 26.09962 328 ft 10 kts 263°
2026-05-09 12:38 44.56985 26.09922 327 ft 8 kts 181°
2026-05-09 12:38 44.56938 26.09929 327 ft 0 kts 174°
2026-05-09 12:39 44.56932 26.09930 327 ft 0 kts 174°